User: anonymous   Login
Location: Pebble Beach Sunset Acres
(33.0837°N, 96.4508°W)
Time: 11:10:56
(UTC+00:00)
Language:

Okean 1 - Orbit

View from above orbital plane
View from above orbital plane
View from above satellite
View from above satellite

Ground track
Ground track

The orbit data is extracted from the following two-line orbital elements,

1 19274U 88056A   22142.87344645  .00003426  00000-0  22269-3 0  9991
2 19274  82.5041 198.8922 0008185 292.9875  67.0489 15.07697219824823
Epoch (UTC): 22 May 2022 20:57:45
Eccentricity: 0.0008185
inclination: 82.5041°
perigee height: 537 km
apogee height: 549 km
right ascension of ascending node: 198.8922°
argument of perigee: 292.9875°
revolutions per day: 15.07697219
mean anomaly at epoch: 67.0489°
orbit number at epoch: 82482

The dashed part of the orbit path shows where the satellite is in the earth's shadow,  

DLR